Location: Linton
(52.0940°N, 0.2850°E)
Time: 20:09:26
(UTC+01:00)

ISS - Pass Details

Date: 11 October 2017
Orbit: 401 x 408 km, 51.6° (Epoch: 23 October)

Event Time Altitude Azimuth Distance (km) Brightness Sun altitude
Rises 19:11:22 0° 282° (WNW) 2,327 2.0 -9.7°
Reaches altitude 10° 19:13:30 10° 275° (W) 1,466 0.6 -10.1°
Maximum altitude 19:16:39 44° 202° (SSW) 574 -2.9 -10.5°
Enters shadow 19:19:32 12° 131° (SE) 1,365 -1.6 -11.0°
